Fábio Neves

Chefscout - Parana
28 Mai 2028
Sonntag
Verarbeitung

Persönlichkeit

Anpassungsfähigkeit (10) Ehrgeiz (1) Kontroverse (6) Loyalität (17) Druck (1) Professionalität (3) Fairness (9) Temperament (19)

Profil

Trainerstil Demokratisch
Lizenz Nationale A
Entschlossenheit 3
Menschenführung 4
Motivation 5
Disziplin 11
Arbeitszufriedenheit
100%
Ermüdung
0%
Rolle Chefscout
Gehalt 62.1K p/W
Vertrag 14.03.2029

Leistung

Verhalten Gut
Trainingseffektivität
33%
Spielerentwicklung
15%
Verletzungsprävention
55%
Taktische Umsetzung
35%

Letzte Ereignisse

Spieler begutachtet jetzt
Nahm an einer Scouting-Besprechung teil jetzt
Nahm an einer Scouting-Besprechung teil jetzt
Nahm an einer Scouting-Besprechung teil jetzt
Spieler begutachtet jetzt
Nahm an einer Scouting-Besprechung teil 7T her
Spieler begutachtet 7T her
Spieler begutachtet 7T her

Aktuell beobachtet

236
Spieler Verein Status Fähigkeit Vertrauen Beobachtet Zuletzt beobachtet Letzte Stimme
Álvaro Tejero Leganés Aktiv 134 / 127 40% 2 26.05.2028 -
Ethan Erhahon Cheltenham Town Aktiv 112 / 125 40% 1 26.05.2028 -
Ghislain Konan Mansfield Town Aktiv 118 / 141 40% 2 25.05.2028 -
Pietro Beruatto Pisa Aktiv 123 / 120 40% 1 25.05.2028 -
Gonçalo Costa Estoril Praia Aktiv 128 / 129 40% 3 24.05.2028 -
Denzel Hall Rotherham United Aktiv 96 / 90 40% 2 24.05.2028 -
Nat Phillips Burton Albion Aktiv 130 / 125 40% 3 22.05.2028 -
Ryan Wintle Milton Keynes Dons Aktiv 133 / 124 40% 1 22.05.2028 -
Matthew Craig Newport County Aktiv 106 / 132 40% 2 19.05.2028 -
Ali McCann Preston Aktiv 135 / 136 40% 4 19.05.2028 -
Márk Kosznovszky Crewe Alexandra Aktiv 123 / 141 40% 1 16.05.2028 -
Liam Bennett Cambridge United Aktiv 113 / 89 40% 1 15.05.2028 -
Zé Carlos Gil Vicente Aktiv 112 / 112 40% 1 15.05.2028 -
Gonçalo Oliveira Benfica Aktiv 113 / 129 40% 3 14.05.2028 -
Martim Cunha Porto Aktiv 105 / 113 40% 1 14.05.2028 -
Marc Baró Leiria Aktiv 119 / 131 40% 4 13.05.2028 -
Jack MacKenzie Plymouth Argyle Aktiv 115 / 104 40% 1 13.05.2028 -
Brendan Wiredu Plymouth Argyle Aktiv 107 / 114 40% 1 12.05.2028 -
Arthur Read Colchester United Aktiv 104 / 126 40% 1 12.05.2028 -
Josh Tymon Swansea City Aktiv 134 / 110 40% 5 10.05.2028 -
Giuseppe Pezzella Cremonese Aktiv 122 / 154 40% 1 10.05.2028 -
Ryan Manning Gillingham Aktiv 133 / 112 40% 2 09.05.2028 -
Darnell Furlong Leyton Orient Aktiv 125 / 116 40% 2 09.05.2028 -
Matthew Litherland Harrogate Town Aktiv 114 / 140 40% 1 07.05.2028 -
Saxon Earley Accrington Stanley Aktiv 113 / 92 40% 1 07.05.2028 -
André Oliveira Porto Aktiv 115 / 132 40% 1 05.05.2028 -
Dean Campbell Northampton Town Aktiv 122 / 101 40% 1 04.05.2028 -
Connor Ogilvie Grimsby Town Aktiv 105 / 118 40% 1 04.05.2028 -
Tom Pearce Chesterfield Aktiv 113 / 112 40% 1 03.05.2028 -
Andrija Vukčević Preston Aktiv 123 / 104 40% 1 03.05.2028 -
Gustavo Garcia Famalicao Aktiv 118 / 113 40% 2 30.04.2028 -
Ramón Valladolid Aktiv 124 / 133 40% 2 28.04.2028 -
Kyle John Port Vale Aktiv 105 / 119 40% 3 22.04.2028 -
André Sousa Feirense Aktiv 111 / 100 40% 2 21.04.2028 -
James Dornelly Peterborough United Aktiv 110 / 92 40% 1 21.04.2028 -
Connor Roberts Notts County Aktiv 144 / 113 40% 3 20.04.2028 -
Lloyd Jones Charlton Athletic Aktiv 146 / 110 40% 1 20.04.2028 -
Joe Rankin-Costello Charlton Athletic Aktiv 118 / 135 40% 2 18.04.2028 -
João Veloso Benfica Aktiv 134 / 120 40% 2 17.04.2028 -
Samuel Justo Sporting CP Aktiv 114 / 132 40% 3 15.04.2028 -
Brodie Spencer Oxford United Aktiv 142 / 142 40% 1 15.04.2028 -
Ben Cabango Gillingham Aktiv 124 / 144 40% 2 14.04.2028 -
Kévin Keben Crawley Town Aktiv 125 / 129 40% 1 14.04.2028 -
Rob Dickie Walsall Aktiv 121 / 128 40% 1 10.04.2028 -
Enrique Clemente Las Palmas Aktiv 134 / 116 40% 2 09.04.2028 -
Toni Tamarit Alverca Aktiv 113 / 103 40% 2 08.04.2028 -
Odel Offiah Shrewsbury Town Aktiv 120 / 128 40% 3 08.04.2028 -
Josh Edwards Charlton Athletic Aktiv 112 / 129 40% 1 04.04.2028 -
Kane Wilson Milton Keynes Dons Aktiv 109 / 118 40% 1 03.04.2028 -
Pol Valentín Cambridge United Aktiv 131 / 123 40% 1 03.04.2028 -
Di'Shon Bernard Sheffield Wednesday Aktiv 141 / 108 40% 1 29.03.2028 -
Daniel Banjaqui Benfica Aktiv 136 / 123 40% 2 28.03.2028 -
Bernardo Lima Porto Aktiv 115 / 104 40% 1 28.03.2028 -
Federico Bicoro Lillestrom Aktiv 107 / 118 40% 2 27.03.2028 -
Marcus McGuane Huddersfield Town Aktiv 117 / 132 40% 1 26.03.2028 -
Anílson Pacos de Ferreira Aktiv 95 / 87 40% 1 26.03.2028 -
Tomás Pérez Porto Aktiv 116 / 136 40% 3 25.03.2028 -
Pablo Ibañez Alavés Aktiv 124 / 133 40% 1 25.03.2028 -
Lewis Cook Bournemouth Aktiv 157 / 155 40% 1 20.03.2028 -
Kaíque Rocha Casa Pia Aktiv 114 / 123 40% 3 19.03.2028 -
Tobías Ostchega America Mineiro Aktiv 125 / 125 40% 2 18.03.2028 -
René López Morelia Aktiv 108 / 99 40% 1 18.03.2028 -
Willian Machado Mirassol Aktiv 128 / 120 40% 4 16.03.2028 -
Atsuki Ito Bolton Wanderers Aktiv 127 / 109 40% 1 15.03.2028 -
Gonçalo Braga Lusitânia Lourosa Aktiv 99 / 84 40% 3 14.03.2028 -
Gustavo Hamer Sheffield United Aktiv 125 / 156 40% 1 14.03.2028 -
Diogo Spencer Alverca Aktiv 110 / 144 40% 2 13.03.2028 -
Felipe Amaral America Mineiro Aktiv 109 / 106 40% 1 12.03.2028 -
Ewerthon Atletico Goianiense Aktiv 98 / 122 40% 1 10.03.2028 -
Mohamed Bamba Gil Vicente Aktiv 137 / 107 40% 1 09.03.2028 -
Sebastián Boselli Getafe Aktiv 123 / 136 40% 1 07.03.2028 -
Jayson Molumby West Bromwich Albion Aktiv 132 / 134 40% 1 07.03.2028 -
Sydie Peck Swindon Town Aktiv 127 / 155 40% 1 06.03.2028 -
Luke Thomas Barnsley Aktiv 136 / 123 40% 1 05.03.2028 -
Pablo Maia Atletico Goianiense Aktiv 142 / 128 40% 1 03.03.2028 -
Dieguinho Ceará Aktiv 128 / 115 40% 3 01.03.2028 -
Paulo Vitor Akron Aktiv 123 / 114 40% 2 01.03.2028 -
Adriano Mina Atletico Goianiense Aktiv 118 / 121 40% 2 29.02.2028 -
Japhet Sery Larsen Philadelphia Union Aktiv 133 / 136 40% 2 29.02.2028 -
Sergi Palencia Los Angeles Football Club Aktiv 118 / 121 40% 1 25.02.2028 -
Facundo Mura Inter Miami CF Aktiv 119 / 131 40% 1 23.02.2028 -
Marcelo Saracchi Houston Dynamo Aktiv 139 / 137 40% 1 21.02.2028 -
Baralhas Vitória Aktiv 135 / 127 40% 1 17.02.2028 -
Tomás Jacob Atlanta United FC Aktiv 131 / 138 40% 1 16.02.2028 -
Nicolás Romero Minnesota United FC Aktiv 145 / 135 40% 1 16.02.2028 -
Nathan America Mineiro Aktiv 125 / 116 40% 2 15.02.2028 -
Caíque Gonçalves Vitória Aktiv 128 / 135 40% 5 11.02.2028 -
Timothy Castagne Stoke City Aktiv 156 / 138 40% 2 11.02.2028 -
Nicolás Garayalde Liverpool Montevideo Aktiv 121 / 114 40% 1 10.02.2028 -
Edgar Elizalde Defensor Sporting Aktiv 121 / 121 40% 1 10.02.2028 -
Éder Ceará Aktiv 111 / 112 40% 1 09.02.2028 -
Ben Sheaf Wrexham Aktiv 140 / 133 40% 1 08.02.2028 -
Cristian Sención Paysandu Aktiv 101 / 112 40% 1 08.02.2028 -
Rodrigues Mirassol Aktiv 134 / 117 40% 2 05.02.2028 -
David Ayala Inter Miami CF Aktiv 127 / 120 40% 1 02.02.2028 -
Walter Juárez Güemes Aktiv 110 / 100 40% 1 31.01.2028 -
Franco Díaz Temperley Aktiv 115 / 127 40% 1 31.01.2028 -
Ignacio Vázquez Platense Aktiv 126 / 130 40% 2 30.01.2028 -
Emiliano Álvarez Progreso Aktiv 126 / 134 40% 1 30.01.2028 -
Bruno Palazzo Nueva Chicago Aktiv 108 / 120 40% 3 28.01.2028 -
Andrés Herrera Columbus Crew Aktiv 129 / 116 40% 2 26.01.2028 -
Facundo Nadalín San Martín SJ Aktiv 115 / 114 40% 1 24.01.2028 -
Bruno Leyes Godoy Cruz Aktiv 138 / 129 40% 2 23.01.2028 -
Marcelo Hermes Criciuma Aktiv 111 / 102 40% 3 21.01.2028 -
Samuel Lucero Defensa y Justicia Aktiv 122 / 134 40% 2 21.01.2028 -
Gabriel Díaz Patronato Aktiv 117 / 114 40% 1 19.01.2028 -
Kai Wagner Philadelphia Union Aktiv 132 / 124 40% 2 16.01.2028 -
Yeferson Rodallega Envigado Aktiv 110 / 130 40% 1 12.01.2028 -
Brian Mieres Mitre Aktiv 111 / 121 40% 1 10.01.2028 -
Malte Amundsen Columbus Crew Aktiv 130 / 113 40% 1 09.01.2028 -
Juan Esteban Ávalo Aguilas Doradas Aktiv 104 / 123 40% 1 24.12.2027 -
Alex Luna Instituto Aktiv 125 / 131 40% 1 24.12.2027 -
Joel Ezra Enyimba Aktiv 85 / 87 40% 1 30.11.2027 -
Adam Phillips Northampton Town Aktiv 131 / 112 40% 2 06.07.2027 -
Xavier Amaechi Plymouth Argyle Aktiv 103 / 126 40% 1 21.06.2027 -
Declan Frith Peterborough United Aktiv 101 / 99 40% 1 14.06.2027 -
Marcus Ifill Crewe Alexandra Aktiv 93 / 101 40% 1 14.06.2027 -
Aaron Drinan Swindon Town Aktiv 101 / 87 40% 1 08.06.2027 -
Brandon Hanlan Doncaster Rovers Aktiv 114 / 108 40% 1 08.06.2027 -
Xavi Sintes Estoril Praia Aktiv 113 / 129 40% 1 29.12.2026 -
Lorougnon Gohi Académico de Viseu Aktiv 109 / 126 40% 1 21.12.2026 -
Jordan Holsgrove Estoril Praia Aktiv 129 / 119 40% 1 21.12.2026 -
Orlando Neto São Paulo Aktiv 93 / 108 51% 1 14.12.2026 -
Dany Jean Torreense Aktiv 122 / 99 40% 2 03.12.2026 -
Mohammed Bouldini Académico de Viseu Aktiv 106 / 97 40% 2 30.11.2026 -
Martín Tejón Maritimo Aktiv 128 / 105 40% 2 30.11.2026 -
Aleksandar Busnić Mlada Boleslav Aktiv 131 / 122 40% 2 29.11.2026 -
Zé Leite Moreirense Aktiv 102 / 115 40% 4 29.11.2026 -
Gabriel Silva Braga Aktiv 113 / 145 40% 4 28.11.2026 -
Gianluca Prestianni Benfica Aktiv 148 / 134 40% 2 28.11.2026 -
Lucas Duarte Felgueiras Aktiv 119 / 84 40% 1 28.11.2026 -
Olívio Tomé Benfica Aktiv 106 / 128 40% 1 28.11.2026 -
Juan Muñoz Leiria Aktiv 142 / 113 40% 3 27.11.2026 -
Abraham Marcus Estrela da Amadora Aktiv 141 / 100 40% 2 27.11.2026 -
Figueiredo Alverca Aktiv 140 / 144 40% 1 24.11.2026 -
Luccas Paraízo Leixões Aktiv 117 / 89 40% 1 24.11.2026 -
Alfonso Trezza Arouca Aktiv 105 / 139 40% 1 23.11.2026 -
Mourad Tijuana Aktiv 118 / 105 40% 2 22.11.2026 -
André Clovis Académico de Viseu Aktiv 136 / 133 40% 2 21.11.2026 -
Sam Greenwood Bristol City Aktiv 110 / 112 40% 1 21.11.2026 -
Matías Vargas Gimnasia y Esgrima Aktiv 138 / 136 40% 1 19.11.2026 -
Peter Valjent FK Senica Aktiv 112 / 109 40% 1 19.11.2026 -
Yanis Begraoui Estoril Praia Aktiv 124 / 125 40% 6 18.11.2026 -
Ola Brynhildsen Rapid Wien Aktiv 118 / 106 40% 1 17.11.2026 -
Pablo Fernández Leiria Aktiv 114 / 99 40% 4 16.11.2026 -
Jackson Muleka Konyaspor Aktiv 117 / 128 40% 1 16.11.2026 -
Kevin Velasco Puebla Aktiv 108 / 132 40% 1 16.11.2026 -
Matías Lacava Vizela Aktiv 99 / 103 40% 2 15.11.2026 -
Renato Kayser Vitória Aktiv 111 / 126 40% 1 14.11.2026 -
Héctor Hernández Gil Vicente Aktiv 111 / 114 40% 3 13.11.2026 -
Lee Hyun-Ju Arouca Aktiv 110 / 127 40% 2 12.11.2026 -
Valery Académico de Viseu Aktiv 135 / 130 40% 1 10.11.2026 -
Lucas Di Yorio Santos Laguna Aktiv 126 / 120 40% 1 10.11.2026 -
Juninho Pumas UNAM Aktiv 132 / 141 40% 1 10.11.2026 -
Vinícius Lopes Santa Clara Aktiv 119 / 140 40% 4 09.11.2026 -
Rodrigo Pinheiro Famalicao Aktiv 143 / 121 40% 2 08.11.2026 -
Reko Leiria Aktiv 133 / 134 40% 1 08.11.2026 -
Soufiane Messeguem Académico de Viseu Aktiv 119 / 110 40% 1 06.11.2026 -
Maxime Dominguez Maritimo Aktiv 122 / 116 40% 1 06.11.2026 Mehr Infos nötig
Morgan Guilavogui Real Salt Lake Aktiv 122 / 141 40% 1 06.11.2026 -
Tamble Monteiro Rio Ave Aktiv 104 / 127 40% 2 05.11.2026 -
Luís Esteves Atlas Aktiv 130 / 134 40% 1 05.11.2026 -
Pedro Pacheco Santa Clara Aktiv 97 / 104 40% 1 04.11.2026 -
Arnau Casas Leixões Aktiv 104 / 115 40% 1 02.11.2026 -
Liziero Nacional Aktiv 135 / 110 40% 1 31.10.2026 -
Alejandro Piedrahita Deportivo Pereira Aktiv 130 / 125 40% 1 29.10.2026 -
Matheuzinho Vitória Aktiv 120 / 124 40% 1 29.10.2026 -
Sorriso Famalicao Aktiv 147 / 121 40% 2 27.10.2026 -
Francisco Moura Porto Aktiv 127 / 142 40% 3 24.10.2026 -
Xeka Estoril Praia Aktiv 143 / 117 40% 2 24.10.2026 -
Wessam Abou Ali Columbus Crew Aktiv 120 / 134 40% 1 24.10.2026 -
Pedro Lima Sporting CP Aktiv 125 / 110 40% 1 24.10.2026 -
João Queirós Oliveirense Aktiv 124 / 119 40% 1 24.10.2026 -
Chuchu Ramírez Nacional Aktiv 115 / 141 40% 4 19.10.2026 -
Santiago Rodríguez Gimnasia y Esgrima Aktiv 120 / 113 40% 1 19.10.2026 -
Matheus Dias Nacional Aktiv 108 / 103 40% 1 19.10.2026 -
Cheikh Sabaly Vancouver Whitecaps Aktiv 118 / 119 40% 2 17.10.2026 -
Guilherme Neiva AVS Aktiv 98 / 93 40% 2 16.10.2026 -
Myrto Uzuni Austin FC Aktiv 144 / 127 40% 1 14.10.2026 -
Korede Osundina Casa Pia Aktiv 107 / 103 40% 1 13.10.2026 -
Tomás Fernández Aldosivi Aktiv 114 / 125 40% 1 12.10.2026 -
Facundo Cáseres Gil Vicente Aktiv 113 / 111 40% 1 12.10.2026 -
Alexey Miranchuk Atlanta United FC Aktiv 153 / 142 40% 1 12.10.2026 -
Angel Bastunov Vizela Aktiv 95 / 117 40% 4 09.10.2026 -
Henrique Araújo Casa Pia Aktiv 121 / 126 40% 2 08.10.2026 -
Mohamed-Ali Cho Hull City Aktiv 132 / 141 40% 2 07.10.2026 -
Ross Stewart Southampton Aktiv 133 / 141 40% 1 06.10.2026 -
Martín Ojeda Orlando City Aktiv 140 / 128 40% 3 05.10.2026 -
Álex Arce Independiente Rivadavia Aktiv 133 / 113 40% 1 04.10.2026 -
Iano Simão Penafiel Aktiv 93 / 96 40% 1 03.10.2026 -
MT Santa Clara Aktiv 133 / 115 40% 1 03.10.2026 -
Santi García Gil Vicente Aktiv 118 / 116 40% 1 29.09.2026 -
Lucas Souto Defensa y Justicia Aktiv 132 / 113 40% 1 28.09.2026 -
Callum Robinson Poltava Aktiv 95 / 126 40% 1 27.09.2026 -
Brenner Vasco da Gama Aktiv 127 / 139 40% 1 26.09.2026 -
Brian White Vancouver Whitecaps Aktiv 120 / 135 40% 1 24.09.2026 -
Miguel Reisinho Feirense Aktiv 127 / 124 40% 1 24.09.2026 -
Mathias De Amorim Famalicao Aktiv 135 / 110 40% 2 22.09.2026 -
Duk Atlas Aktiv 102 / 126 40% 1 22.09.2026 -
Rodrigo Martins Lusitânia Lourosa Aktiv 108 / 121 40% 1 22.09.2026 -
Rony Lopes Tondela Aktiv 132 / 95 40% 1 22.09.2026 -
Dawda Camara Alverca Aktiv 125 / 142 40% 2 19.09.2026 -
Jhonatan Candia Barracas Central Aktiv 118 / 128 40% 2 19.09.2026 -
Alexander Aravena Portland Timbers Aktiv 122 / 129 40% 1 19.09.2026 -
Ryan Gauld Vancouver Whitecaps Aktiv 131 / 140 40% 1 19.09.2026 -
Jorge Meireles AVS Aktiv 103 / 129 40% 1 16.09.2026 -
Negueba Mirassol Aktiv 129 / 109 40% 1 14.09.2026 -
Andre Green AVS Aktiv 111 / 106 40% 1 11.09.2026 -
Francisco Domingues Moreirense Aktiv 101 / 113 40% 1 07.09.2026 -
Leandro Lozano Boca Juniors Aktiv 123 / 112 40% 1 07.09.2026 -
Julian Herrera Cortulua Aktiv 128 / 122 40% 1 07.09.2026 -
Michael Vadulli Audax Italiano Aktiv 123 / 93 40% 1 06.09.2026 -
Zian Flemming Ipswich Town Aktiv 123 / 117 40% 1 03.09.2026 -
Timo Werner San Jose Earthquakes Aktiv 118 / 124 40% 1 02.09.2026 -
Mika Lusitânia Lourosa Aktiv 96 / 92 40% 1 02.09.2026 -
Dylan Nandín Arouca Aktiv 106 / 122 40% 1 30.08.2026 -
Ole Pohlmann Rio Ave Aktiv 140 / 134 40% 1 30.08.2026 -
Dániel Gazdag New England Revolution Aktiv 132 / 140 40% 1 28.08.2026 -
Agustín Moreira Gil Vicente Aktiv 113 / 109 40% 1 26.08.2026 -
Marcus Ingvartsen San Diego Football Club Aktiv 126 / 112 40% 1 26.08.2026 -
Leonardo Campana New England Revolution Aktiv 112 / 135 40% 1 25.08.2026 -
Luis Amarilla Cerro Porteno Aktiv 128 / 107 40% 1 24.08.2026 -
André Lacximicant Estoril Praia Aktiv 89 / 100 40% 1 24.08.2026 -
Pedro Santos Arouca Aktiv 104 / 117 40% 1 22.08.2026 -
Joe Gelhardt Hull City Aktiv 117 / 107 40% 1 19.08.2026 -
Jair Silva Leiria Aktiv 104 / 86 40% 1 18.08.2026 -
Yuri Tanque Criciuma Aktiv 127 / 123 40% 1 18.08.2026 -
Espen van Ee Arouca Aktiv 122 / 140 40% 1 18.08.2026 -
Ianis Stoica Estrela da Amadora Aktiv 122 / 104 40% 1 18.08.2026 -
Geovanni Banguera Deportivo Pasto Aktiv 131 / 131 40% 1 17.08.2026 -
Pedro Maranhão Tondela Aktiv 120 / 104 40% 1 17.08.2026 -
Callum O'Hare Sheffield United Aktiv 149 / 111 40% 1 13.08.2026 -
Nabil Touaizi Alverca Aktiv 124 / 122 40% 1 09.08.2026 Mehr Infos nötig
Patrick Sequeira Casa Pia Aktiv 121 / 111 40% 1 07.08.2026 -
Marios Vrousai Rio Ave Aktiv 138 / 107 40% 1 05.08.2026 -
Leo Román Deportivo La Coruña Aktiv 143 / 160 40% 1 03.08.2026 -